Tracking 18840 objects as of 17-November-2017
HD Live streaming from Space Station
objects crossing your sky now

FENGYUN 1C DEB

Track FENGYUN 1C DEB now!
10-day predictions


NORAD ID: 30556
Int'l Code: 1999-025AKW
Perigee: 858.6 km
Apogee: 953.4 km
Inclination: 99.0 °
Period: 103.0 minutes
Semi major axis: 7276 km
RCS: 0.0154 m2 (small)
Launch date: May 10, 1999
Source: People's Republic of China (PRC)
Launch site: Taiyaun Space Center, China (TSC)

Note: This is SATELLITE DEBRIS
aabbcc
Your satellite tracking list
Your tracking list is empty




NASA's NSSDC Master Catalog

Two Line Element Set (TLE):
1 30556U 99025AKW 17321.13359076 -.00000101  00000-0 -39472-4 0  9995
2 30556  98.9985  14.7437 0065131 131.0535 283.4580 13.98539568550411
Source of the keplerian elements: AFSPC